Regional Weather Roundup
Issued by NWS

Home | Current Version | Previous Version | Graphics & Text | Print | Product List | Glossary Off
Versions: 1 2 3 4 5 6 7 8 9 10 11 12 13 14 15 16 17 18 19 20 21 22 23 24 25 26 27 28 29 30 31 32 33 34 35 36 37 38 39 40 41 42 43 44 45 46 47 48 49 50

760
ASUS43 KMKX 212300
RWRWI

WISCONSIN REGIONAL WEATHER ROUNDUP
NATIONAL WEATHER SERVICE MILWAUKEE/SULLIVAN WI
600 PM CDT SAT OCT 21 2017

NOTE: "FAIR" INDICATES FEW OR NO CLOUDS BELOW 12,000 FEET WITH NO
SIGNIFICANT WEATHER AND/OR OBSTRUCTIONS TO VISIBILITY.

WIZ001-002-006>008-014>016-023>028-220000-
NORTHWEST WISCONSIN

CITY           SKY/WX    TMP DP  RH WIND       PRES   REMARKS
SUPERIOR ARPT  CLOUDY    65  60  86 S10G22    29.66R
ASHLAND        CLOUDY    67  58  72 S14G23    29.71R
HAYWARD        CLOUDY    66  57  72 S15G24    29.73R
SIREN          CLOUDY    65  58  76 S13G20    29.70R
CUMBERLAND     CLOUDY    63  55  77 S15       29.73R
RICE LAKE      CLOUDY    66  58  75 S15G21    29.75R
CHETEK         CLOUDY    66  59  77 S10G21    29.74R
LADYSMITH      CLOUDY    67  58  72 S15G23    29.78S
EAU CLAIRE     CLOUDY    67  58  72 S15       29.75S
MENOMONIE      CLOUDY    69  58  69 S16G25    29.74R
NEW RICHMOND   CLOUDY    66  57  72 S13G21    29.71R
OSCEOLA        CLOUDY    67  59  76 S14G22    29.72R
$$

WIZ003>005-009-010-017-018-220000-
NORTH CENTRAL WISCONSIN

CITY           SKY/WX    TMP DP  RH WIND       PRES   REMARKS
MANITOWISH WTR CLOUDY    65  58  78 S13G22    29.80R
ARBOR VITAE    PTCLDY    67  58  72 S18G28    29.81S
WOODRUFF       PTCLDY    67  58  72 S18G28    29.81S
RHINELANDER    CLOUDY    66  58  75 S5        29.84F
EAGLE RIVER    NOT AVBL
LAND O LAKES   CLOUDY    67  55  66 S8        29.84R
PHILLIPS       CLOUDY    65  59  78 S17G25    29.78S
TOMAHAWK       CLOUDY    63  56  76 CALM      29.83F
MEDFORD        CLOUDY    63  56  80 S5        29.83S
MERRILL        CLOUDY    69  58  68 S5        29.84S
$$

WIZ029-030-035-036-043>047-220000-
CENTRAL WISCONSIN

CITY           SKY/WX    TMP DP  RH WIND       PRES   REMARKS
WAUSAU         CLOUDY    70  57  63 SE9       29.82F
MOSINEE        MOCLDY    70  57  64 SE10      29.85F
MARSHFIELD     CLOUDY    69  56  62 S7        29.82S
STEVENS POINT  PTCLDY    70  57  63 S8        29.85F
WAUPACA        CLOUDY    75  58  55 SE7       29.87S
WAUTOMA        CLOUDY   N/A N/A N/A S12       29.87S
WISC RAPIDS    PTCLDY    73  59  61 S9        29.85S
CAMP DOUGLAS   NOT AVBL
$$

WIZ011>013-019>022-031-037>040-048>050-220000-
NORTHEAST WISCONSIN

CITY           SKY/WX    TMP DP  RH WIND       PRES   REMARKS
ANTIGO         CLOUDY    67  56  67 S12       29.87S
SHAWANO        CLOUDY    73  56  56 SE6       29.87S
OCONTO         CLEAR     63  54  72 S8        29.90S
STURGEON BAY   CLEAR     60  55  83 S21G29    29.93R
GREEN BAY      CLEAR     67  57  70 SE12      29.90S
MANITOWOC      CLEAR     60  55  83 S20G25    29.95R
APPLETON       PTCLDY    72  54  53 S12       29.89R
CLINTONVILLE   NOT AVBL
OSHKOSH        CLEAR     70  57  63 S10       29.90R
$$

WIZ032>034-041-042-053>061-220000-
SOUTHWEST WISCONSIN

CITY           SKY/WX    TMP DP  RH WIND       PRES   REMARKS
LA CROSSE      CLOUDY    69  60  73 SE10      29.79S
SPARTA         CLOUDY    72  60  64 S7        29.82S
VIROQUA        CLOUDY    72  60  66 S12G17    29.83S
BOSCOBEL       LGT RAIN  76  59  55 S6        29.83F
PRAIRIE DU CHI CLOUDY    74  57  54 SE7       29.81F
PLATTEVILLE    CLOUDY    73  60  63 SE10      29.87F
$$

WIZ056-057-062-063-064-067-068-220000-
SOUTH CENTRAL WISCONSIN

CITY           SKY/WX    TMP DP  RH WIND       PRES   REMARKS
REEDSBURG      PTCLDY    73  58  59 S9G17     29.86S
BARABOO/DELLS  MOCLDY    71  55  56 S15       29.87S
LONE ROCK      NOT AVBL
MINERAL POINT  CLOUDY    73  59  60 S10       29.89S
MADISON        MOCLDY    74  57  55 S14       29.90R
MIDDLETON      CLOUDY    75  56  51 S10       29.90S
WATERTOWN      CLEAR     73  55  53 S8        29.91R
MONROE         MOCLDY    73  55  53 S14G20    29.91R
JANESVILLE     PTCLDY    75  55  50 S13G18    29.91S
$$

WIZ051-052-058>065-066-070>072-220000-
SOUTHEAST WISCONSIN

CITY           SKY/WX    TMP DP  RH WIND       PRES   REMARKS
MILWAUKEE      PTCLDY    70  57  63 S10       29.95S
WAUKESHA       CLEAR     72  54  53 S12G21    29.95R
MILWAUKEE/TIMM CLEAR     72  54  53 SE9       29.95R
RACINE         MOCLDY    65  57  75 S12       29.98R
BURLINGTON     PTCLDY    73  57  58 S7G17     29.95R
KENOSHA        MOCLDY    72  57  59 S8        29.97R
FOND DU LAC    CLEAR     72  54  53 S8        29.91R
SHEBOYGAN      CLEAR     64  56  75 S17       29.95R
WEST BEND      CLEAR     70  54  56 S8        29.93R
JUNEAU         CLEAR     73  55  53 S12G17    29.92R
$$

LSZ147-162-220000-
LAKE SUPERIOR

STATION/POSITION TIME  TEMP    WIND        PRES    WAVE
                       AIR SEA DIR/SP/G            HT/PER
                 (UTC) (F)     (DEG/KT/KT) (MB)    (FT/S)
W MID LAKE BUOY  2150   58 52              1005.9R   2/ 4
DEVILS ISLAND    2200   64     180/  8/ 12 1005.4R
PORT WING        2140          180/  9/ 19 1005.1S
SAXON HARBOR     2230   70     190/  8/ 15 1005.4S
$$

LMZ867-665-643>646-220000-
LAKE MICHIGAN

STATION/POSITION TIME  TEMP    WIND        PRES    WAVE
                       AIR SEA DIR/SP/G            HT/PER
                 (UTC) (F)     (DEG/KT/KT) (MB)    (FT/S)
S GREEN BAY BUOY 2200   64 58  160/ 16/ 21 1012.2
N MID LAKE BUOY  2150   63 58  190/ 23/ 27 1014.0F   6/ 7
NORTHPORT PIER   2240   60     160/ 12/ 20 1013.5R
KEWAUNEE LAKESHO 2230   53     180/ 10/ 10 1013.1F
SHEBOYGAN LAKESH 2200   57     180/ 19/ 20 1013.5F
PORT WASHINGTON  2240   58     190/  6/ 10 1015.2R
ATWATER BUOY     2109   58 53  150/ 19/ 23 1013.6
MILWAUKEE LAKESH 2220   60     150/ 17/ 19   N/A
S MID LAKE BUOY  2150   65 61  150/ 17/ 21 1015.4F   3/ 4
KENOSHA   LAKESH 2200   59     170/ 16/ 19 1014.2
$$

TC  - TEMPERATURE IN CELSIUS
VSB - VISIBILITY IN STATUTE MILES
WCI - WIND CHILL INDEX
HX  - HEAT INDEX





USA.gov is the U.S. government's official web portal to all federal, state and local government web resources and services.